Regional Weather Roundup
Issued by NWS

Home | Current Version | Previous Version | Graphics & Text | Print | Product List | Glossary On
Versions: 1 2 3 4 5 6 7 8 9 10 11 12 13 14 15 16 17 18 19 20 21 22 23 24 25 26 27 28 29 30 31 32 33 34 35 36 37 38 39 40 41 42 43 44 45 46 47 48 49 50
000
ASUS43 KFSD 211210
RWRSD

WEATHER ROUNDUP FOR SOUTH DAKOTA
NATIONAL WEATHER SERVICE SIOUX FALLS SD
700 AM CDT MON AUG 21 2017

NOTE: "FAIR" INDICATES FEW OR NO CLOUDS BELOW 12,000 FEET WITH NO
SIGNIFICANT WEATHER AND/OR OBSTRUCTIONS TO VISIBILITY.


SDZ001>005-009-010-012>017-211300-
NORTHWEST AND NORTH CENTRAL SOUTH DAKOTA

CITY           SKY/WX    TMP DP  RH WIND       PRES   REMARKS
BUFFALO          N/A     56  49  77 W6        29.97R
FAITH            N/A     60  60 100 S12       29.96R
MOBRIDGE       CLOUDY    63  58  83 NW3       29.96R
$$

SDZ012>016-024>037-041>051-057-063-072>074-211300-
SOUTHWEST AND SOUTH CENTRAL SOUTH DAKOTA

CITY           SKY/WX    TMP DP  RH WIND       PRES   REMARKS
RAPID CTY ARPT PTCLDY    58  52  80 NW6       29.99S
PIERRE         CLOUDY    60  54  80 NE13      29.98R
CUSTER         FOG       60  58  92 NW3       30.11R VSB 1/2
ELLSWORTH AFB  CLOUDY    57  52  84 W6        29.99R
PHILIP         CLOUDY    63  57  81 E9        29.96F
PINE RIDGE     CLOUDY    71  69  93 W8        29.98R
SPEARFISH      FAIR      57  52  82 W5        30.04S
WINNER         FAIR      63  62  97 SE8       29.95R
$$

SDZ004>011-016>023-039-040-211300-
NORTHEAST SOUTH DAKOTA

CITY           SKY/WX    TMP DP  RH WIND       PRES   REMARKS
ABERDEEN       LGT RAIN  57  56  96 NE3       30.05R
WATERTOWN      CLOUDY    63  57  81 E6        30.02F
BROOKINGS      CLOUDY    64  60  87 SE7       30.01F
SISSETON         N/A     56  55  97 CALM      30.02F
$$

SDZ017-020-022-023-036>040-048>070-211300-
SOUTHEAST SOUTH DAKOTA

CITY           SKY/WX    TMP DP  RH WIND       PRES   REMARKS
SIOUX FALLS    MOCLDY    65  64  97 E3        29.99S
HURON          CLOUDY    61  60  97 E6        29.97S
CHAMBERLAIN    MOCLDY    63  62  99 E9        29.96S
MITCHELL       CLOUDY    63  62  97 E3        29.98S
YANKTON        CLOUDY    69  65  86 E7        29.98R
$$

ABBREVIATIONS USED IN REMARKS
   TC - TEMPERATURE IN CELSIUS
  WCI - WIND CHILL INDEX
   HX - HEAT INDEX
  VSB - VISIBILITY





USA.gov is the U.S. government's official web portal to all federal, state and local government web resources and services.